Location: Charlotte
(35.2269°N, 80.8433°W)
Time: 07:26:43
(UTC-05:00)

ISS - Visible Passes

Search period start: 18 December 2014 00:00
Search period end: 28 December 2014 00:00
Orbit: 404 x 415 km, 51.6° (Epoch: 18 December)

Date Brightness Start Highest point End Pass type
(mag) Time Alt. Az. Time Alt. Az. Time Alt. Az.
22 Dec -0.7 18:41:51 10° N 18:42:05 11° N 18:42:05 11° N visible
24 Dec -2.1 18:35:41 10° NNW 18:38:06 26° NNE 18:38:06 26° NNE visible
25 Dec -1.6 17:45:06 10° NNW 17:47:21 17° NNE 17:49:35 10° ENE visible
25 Dec -1.5 19:20:55 10° WNW 19:22:49 30° WNW 19:22:49 30° WNW visible
26 Dec -3.5 18:29:46 10° NW 18:33:03 74° NE 18:35:06 21° SE visible
27 Dec -0.4 19:15:59 10° W 19:18:11 17° SW 19:20:22 10° S visible
